Terminal Aerodrome Forecast
Issued by NWS Cleveland, OH

Home | Current Version | Previous Version | Graphics & Text | Print | Product List | Glossary On
Versions: 1 2 3 4 5 6 7 8 9 10 11 12 13
000
FTUS41 KCLE 220525
TAFTOL
TAF
KTOL 220525Z 2206/2306 36008KT P6SM OVC035
      TEMPO 2207/2211 BKN025
     FM221500 03012KT P6SM BKN040=

USA.gov is the U.S. government's official web portal to all federal, state and local government web resources and services.